Location: Newark
(48.1500°N, 2.9667°W)
Time: 02:34:18
(UTC+00:00)

A-11 Canister half - Pass Details

Date: 31 January 2020
Orbit: 1517 x 1683 km, 47.2° (Epoch: 26 February)

Event Time Altitude Azimuth Distance (km) Brightness Sun altitude
Exits shadow 02:53:55 24° 118° (ESE) 2,735 10.4 -47.0°
Drops below altitude 10° 02:56:58 10° 116° (ESE) 3,684 11.2 -46.6°
Sets 03:00:01 0° 114° (ESE) 4,674 11.9 -46.1°
